Rolla, MO

10:02 AM CDT on August 18, 2017 (GMT -0500)
Rolla National

Weather History for KVIH - June, 2013

Change the Weather History Date:

Sunday, June 30, 2013

  Actual Average Record
Temperature  
Mean Temperature 69 °F 76 °F  
Max Temperature 77 °F 86 °F 102 °F (2012)
Min Temperature 61 °F 66 °F 56 °F (2008)
Degree Days  
Heating Degree Days 0 0  
Month to date heating degree days 17 12  
Since 1 June heating degree days 17 14  
Since 1 July heating degree days 4957 4848  
Cooling Degree Days 4 11  
Month to date cooling degree days 217 235  
Year to date cooling degree days 324 342  
Since 1 June cooling degree days 217 235  
Growing Degree Days 19 (Base 50)    
Moisture  
Dew Point 61 °F    
Average Humidity 80    
Maximum Humidity 100    
Minimum Humidity 60    
Precipitation  
Precipitation 0.40 in 0.13 in 1.84 in (1951)
Month to date precipitation 3.79 4.63  
Year to date precipitation 25.09 21.44  
Sea Level Pressure  
Sea Level Pressure 29.87 in    
Wind  
Wind Speed 8 mph (NNW)    
Max Wind Speed 16 mph    
Max Gust Speed 23 mph    
Visibility 9 miles    
Events Rain , Thunderstorm    
T = Trace of Precipitation, MM = Missing Value Source: NWS Daily Summary

Daily Weather History Graph

Daily Weather History Graph

Search for Another Location

Airport or City:

Trip Planner

Search our weather history database for the weather conditions in past years. The results will help you decide how hot, cold, wet, or windy it might be!

Date:

Astronomy

Jun. 30, 2013 Rise Set
Actual Time 5:47 AM CDT 8:34 PM CDT
Civil Twilight 5:16 AM CDT 9:05 PM CDT
Nautical Twilight 4:36 AM CDT 9:44 PM CDT
Astronomical Twilight 3:51 AM CDT 10:29 PM CDT
Moon 12:41 AM CDT (6/30) 1:53 PM CDT (6/30)
Length of Visible Light 15h 49m
Length of Day
14h 46m
Last Quarter, 45% of the Moon is Illuminated
Jun 30
Last Quarter
Jul 8
New
Jul 15
First Quarter
Jul 22
Full
Jul 29
Last Quarter

Hourly Weather History & Observations

Time (CDT) Temp. Dew Point Humidity Pressure Visibility Wind Dir Wind Speed Gust Speed Precip Events Conditions
12:32 AM 62.6 °F 60.8 °F 94% 29.80 in 10.0 mi NW 6.9 mph - N/A   Mostly Cloudy
12:53 AM 61.0 °F 60.1 °F 97% 29.77 in 10.0 mi NW 6.9 mph - N/A   Scattered Clouds
1:22 AM 62.6 °F 60.8 °F 94% 29.80 in 10.0 mi NW 8.1 mph - N/A   Mostly Cloudy
1:53 AM 62.1 °F 60.1 °F 93% 29.78 in 10.0 mi North 8.1 mph - N/A   Overcast
2:28 AM 62.6 °F 60.8 °F 94% 29.81 in 10.0 mi NNW 6.9 mph - N/A   Overcast
2:53 AM 62.1 °F 60.1 °F 93% 29.78 in 10.0 mi North 8.1 mph - N/A   Overcast
3:53 AM 62.1 °F 60.1 °F 93% 29.78 in 9.0 mi North 6.9 mph - N/A   Overcast
4:53 AM 62.1 °F 60.1 °F 93% 29.80 in 8.0 mi North 9.2 mph - N/A   Overcast
5:53 AM 62.1 °F 61.0 °F 96% 29.81 in 8.0 mi North 8.1 mph - N/A   Overcast
6:53 AM 63.0 °F 61.0 °F 93% 29.83 in 6.0 mi North 8.1 mph - 0.00 in Rain Light Rain
7:26 AM 62.6 °F 60.8 °F 94% 29.86 in 9.0 mi North 9.2 mph - 0.00 in   Overcast
7:53 AM 64.0 °F 61.0 °F 90% 29.85 in 10.0 mi North 8.1 mph - 0.00 in   Mostly Cloudy
8:15 AM 64.4 °F 60.8 °F 88% 29.87 in 10.0 mi North 9.2 mph - N/A   Scattered Clouds
8:48 AM 64.4 °F 60.8 °F 88% 29.88 in 10.0 mi NNW 8.1 mph - N/A   Mostly Cloudy
8:53 AM 66.0 °F 61.0 °F 84% 29.86 in 10.0 mi North 8.1 mph - N/A   Mostly Cloudy
9:00 AM 66.2 °F 60.8 °F 83% 29.88 in 10.0 mi Variable 6.9 mph - N/A   Scattered Clouds
9:11 AM 66.2 °F 60.8 °F 83% 29.89 in 10.0 mi North 10.4 mph - N/A   Mostly Cloudy
9:26 AM 68.0 °F 60.8 °F 78% 29.89 in 10.0 mi NNW 9.2 mph - N/A   Mostly Cloudy
9:37 AM 66.2 °F 60.8 °F 83% 29.90 in 10.0 mi NNW 11.5 mph - N/A   Mostly Cloudy
9:53 AM 68.0 °F 61.0 °F 78% 29.88 in 10.0 mi NNW 8.1 mph - 0.01 in   Mostly Cloudy
10:01 AM 69.8 °F 62.6 °F 78% 29.89 in 10.0 mi North 9.2 mph - N/A   Mostly Cloudy
10:09 AM 68.0 °F 60.8 °F 78% 29.89 in 10.0 mi NW 12.7 mph 17.3 mph N/A   Mostly Cloudy
10:19 AM 68.0 °F 62.6 °F 83% 29.90 in 10.0 mi North 8.1 mph 23.0 mph N/A   Mostly Cloudy
10:53 AM 68.0 °F 61.0 °F 78% 29.88 in 10.0 mi NW 9.2 mph - N/A   Mostly Cloudy
11:53 AM 71.1 °F 60.1 °F 68% 29.88 in 10.0 mi North 15.0 mph 20.7 mph N/A   Overcast
12:53 PM 70.0 °F 60.1 °F 71% 29.88 in 10.0 mi North 11.5 mph 17.3 mph N/A   Overcast
1:53 PM 72.0 °F 61.0 °F 68% 29.87 in 10.0 mi North 11.5 mph - N/A   Overcast
2:53 PM 77.0 °F 62.1 °F 60% 29.86 in 10.0 mi North 9.2 mph - N/A   Mostly Cloudy
3:53 PM 72.0 °F 62.1 °F 71% 29.87 in 10.0 mi NW 5.8 mph - 0.00 in   Overcast
4:53 PM 73.0 °F 60.1 °F 64% 29.87 in 10.0 mi NW 8.1 mph - N/A   Overcast
5:11 PM 64.4 °F 60.8 °F 88% 29.91 in 1.8 mi NNW 11.5 mph 18.4 mph 0.03 in Rain Heavy Rain
5:23 PM 66.2 °F 62.6 °F 88% 29.90 in 3.0 mi NNW 4.6 mph - 0.06 in Rain Light Rain
5:53 PM 68.0 °F 64.0 °F 87% 29.88 in 10.0 mi NNW 6.9 mph - 0.12 in   Mostly Cloudy
6:53 PM 68.0 °F 63.0 °F 84% 29.89 in 10.0 mi North 6.9 mph - 0.04 in   Overcast
7:53 PM 66.9 °F 61.0 °F 81% 29.91 in 10.0 mi NNE 15.0 mph 18.4 mph N/A   Scattered Clouds
8:13 PM 64.4 °F 62.6 °F 94% 29.93 in 10.0 mi ENE 6.9 mph - 0.00 in   Mostly Cloudy
8:33 PM 62.6 °F 60.8 °F 94% 29.94 in 1.8 mi NE 10.4 mph - 0.02 in Rain Heavy Rain
8:36 PM 62.6 °F 60.8 °F 94% 29.95 in 2.0 mi NNE 9.2 mph - 0.02 in Rain Heavy Rain
8:53 PM 63.0 °F 62.1 °F 97% 29.92 in 6.0 mi North 3.5 mph - 0.06 in Rain Light Rain
9:03 PM 62.6 °F 62.6 °F 100% 29.94 in 7.0 mi NNW 3.5 mph - 0.02 in Rain , Thunderstorm Light Rain
9:18 PM 62.6 °F 62.6 °F 100% 29.94 in 10.0 mi Calm Calm - 0.06 in Rain Light Rain
9:53 PM 63.0 °F 61.0 °F 93% 29.93 in 10.0 mi Calm Calm - 0.13 in   Overcast
10:53 PM 62.1 °F 61.0 °F 96% 29.94 in 9.0 mi NNW 3.5 mph - 0.04 in   Scattered Clouds
11:53 PM 62.1 °F 61.0 °F 96% 29.93 in 10.0 mi North 4.6 mph - N/A   Partly Cloudy